{"data":{"norad_id":52369,"epoch":"2026-09-20T01:25:22.342368Z","epoch_age_seconds":97737,"freshness":"FRESH","line1":"1 52369U 22045AQ  26263.05928637  .00008402  00000+0  25953-3 0  9997","line2":"2 52369  53.1595  27.4791 0001155  74.2250 285.8879 15.34397509245382","mean_motion":15.34397509,"eccentricity":0.0001155,"inclination_deg":53.1595,"raan_deg":27.4791,"arg_perigee_deg":74.225,"mean_anomaly_deg":285.8879,"bstar":0.00025953,"rev_number":24538,"period_min":93.847910437399,"perigee_km":461.92052609119,"apogee_km":463.50076189696,"semimajor_km":6840.8476439941,"source":"CELESTRAK","updated_at":"2026-09-20T09:00:40.028469Z"}}